User: anonymous   Login
Location: Spruce Knob
(38.6995°N, 79.5330°W)
Time: 09:19:34
(UTC-04:00)
Language:

CAS-6 - Orbit

View from above orbital plane
View from above orbital plane
View from above satellite
View from above satellite

Ground track
Ground track

The orbit data is extracted from the following two-line orbital elements,

1 44881U 19093C   23080.21153934  .00001809  00000-0  23263-3 0  9995
2 44881  97.8658 160.1591 0015067  10.3344 349.8164 14.82286876175760
Epoch (UTC): 21 March 2023 05:04:36
Eccentricity: 0.0015067
inclination: 97.8658°
perigee height: 611 km
apogee height: 632 km
right ascension of ascending node: 160.1591°
argument of perigee: 10.3344°
revolutions per day: 14.82286876
mean anomaly at epoch: 349.8164°
orbit number at epoch: 17576

The dashed part of the orbit path shows where the satellite is in the earth's shadow,  

DLR